Location: Pacheco
(37.9835°N, 122.0752°W)
Time: 10:47:24
(UTC+00:00)

Cosmos 1515 Rocket - Pass Details

Date: 13 April 2024
Orbit: 602 x 627 km, 82.5° (Epoch: 23 May)

Event Time Altitude Azimuth Distance (km) Brightness Sun altitude
Exits shadow 12:15:25 - 179° (S) 2,897 6.8 -15.6°
Rises 12:15:25 0° 179° (S) 2,896 6.8 -15.6°
Reaches altitude 10° 12:17:39 10° 177° (S) 1,995 5.9 -15.2°
Maximum altitude 12:22:02 68° 95° (E) 679 3.9 -14.4°
Drops below altitude 10° 12:26:28 10° 13° (NNE) 2,010 6.7 -13.6°
Sets 12:28:43 0° 11° (N) 2,920 7.5 -13.2°
